When you browse on this site, cookies collect data to enhance your experience and personalize the content and advertising you see.
Visit our Privacy Policy to learn more. By continuing to use the site, you agree to this use of cookies and data.
  • In Spain
  • List of Countries
  • For 7 days
  • Water Temperature
  • Weather Map
  • Weather Widgets
  • user-avatar
    Login

    Hourly Weather Sidi Bu-l-Abbas

    Today, 6 June, Saturday

    Time Temperature Precipitation Wind Pressure Humidity
    00:00 +20°C° 0 mm 0 mps 719 mmHg 45%
    01:00 +20°C° 0 mm 0 mps 719 mmHg 45%
    02:00 +19°C° 0 mm 0 mps 719 mmHg 46%
    03:00 +19°C° 0 mm 0 mps 718 mmHg 47%
    04:00 +20°C° 0 mm 0 mps 718 mmHg 46%
    05:00 +20°C° 0 mm 0 mps 719 mmHg 45%
    06:00 +21°C° 0 mm 0 mps 719 mmHg 45%
    07:00 +25°C° 0 mm 1 mps 719 mmHg 39%
    08:00 +27°C° 0 mm 1 mps 719 mmHg 34%
    09:00 +28°C° 0 mm 1 mps 719 mmHg 29%
    10:00 +29°C° 0 mm 2 mps 719 mmHg 28%
    11:00 +30°C° 0 mm 3 mps 719 mmHg 27%
    12:00 +32°C° 0 mm 4 mps 719 mmHg 25%
    13:00 +32°C° 0 mm 4 mps 719 mmHg 27%
    14:00 +32°C° 0 mm 4 mps 718 mmHg 28%
    15:00 +32°C° 0 mm 5 mps 718 mmHg 30%
    16:00 +30°C° 0 mm 4 mps 717 mmHg 31%
    17:00 +29°C° 0 mm 3 mps 717 mmHg 31%
    18:00 +29°C° 0 mm 3 mps 716 mmHg 32%
    19:00 +28°C° 0 mm 3 mps 716 mmHg 36%
    20:00 +26°C° 0 mm 3 mps 716 mmHg 39%
    21:00 +25°C° 0 mm 3 mps 717 mmHg 42%
    22:00 +25°C° 0 mm 3 mps 717 mmHg 43%
    23:00 +24°C° 0 mm 3 mps 717 mmHg 44%

    Tomorrow, 7 June, Sunday

    Time Temperature Precipitation Wind Pressure Humidity
    00:00 +23°C° 0 mm 2 mps 717 mmHg 45%
    01:00 +22°C° 0 mm 3 mps 717 mmHg 47%
    02:00 +21°C° 0 mm 3 mps 717 mmHg 49%
    03:00 +21°C° 0 mm 4 mps 717 mmHg 51%
    04:00 +21°C° 0 mm 3 mps 717 mmHg 53%
    05:00 +21°C° 0 mm 2 mps 717 mmHg 54%
    06:00 +21°C° 0 mm 2 mps 717 mmHg 55%
    07:00 +22°C° 0 mm 3 mps 718 mmHg 54%
    08:00 +22°C° 0 mm 4 mps 718 mmHg 52%
    09:00 +23°C° 0 mm 5 mps 718 mmHg 51%
    10:00 +25°C° 0 mm 5 mps 718 mmHg 49%
    11:00 +25°C° 0 mm 5 mps 718 mmHg 47%
    12:00 +26°C° 0 mm 5 mps 718 mmHg 45%
    13:00 +27°C° 0 mm 6 mps 718 mmHg 42%
    14:00 +28°C° 0 mm 6 mps 718 mmHg 39%
    15:00 +28°C° 0 mm 6 mps 718 mmHg 36%
    16:00 +27°C° 0 mm 6 mps 718 mmHg 42%
    17:00 +26°C° 0 mm 6 mps 717 mmHg 48%
    18:00 +23°C° 0 mm 6 mps 717 mmHg 54%
    19:00 +23°C° 0 mm 6 mps 717 mmHg 55%
    20:00 +22°C° 0 mm 5 mps 718 mmHg 56%
    21:00 +21°C° 0 mm 5 mps 718 mmHg 57%
    22:00 +21°C° 0 mm 5 mps 718 mmHg 58%
    23:00 +21°C° 0 mm 4 mps 718 mmHg 58%

    Day after tomorrow, 8 June, Monday

    Time Temperature Precipitation Wind Pressure Humidity
    00:00 +20°C° 0 mm 4 mps 718 mmHg 59%
    01:00 +20°C° 0 mm 4 mps 717 mmHg 60%
    02:00 +20°C° 0 mm 4 mps 717 mmHg 62%
    03:00 +19°C° 0 mm 3 mps 717 mmHg 64%
    04:00 +20°C° 0 mm 4 mps 717 mmHg 64%
    05:00 +20°C° 0 mm 4 mps 717 mmHg 63%
    06:00 +20°C° 0 mm 4 mps 717 mmHg 63%
    07:00 +21°C° 0 mm 5 mps 718 mmHg 59%
    08:00 +22°C° 0 mm 6 mps 718 mmHg 56%
    09:00 +23°C° 0 mm 7 mps 718 mmHg 52%
    10:00 +24°C° 0 mm 7 mps 719 mmHg 50%
    11:00 +24°C° 0 mm 8 mps 719 mmHg 47%
    12:00 +26°C° 0 mm 8 mps 719 mmHg 45%
    13:00 +26°C° 0 mm 8 mps 718 mmHg 44%
    14:00 +26°C° 0 mm 8 mps 718 mmHg 44%
    15:00 +26°C° 0 mm 8 mps 718 mmHg 43%
    16:00 +24°C° 0 mm 7 mps 718 mmHg 46%
    17:00 +23°C° 0 mm 6 mps 718 mmHg 50%
    18:00 +22°C° 0 mm 6 mps 718 mmHg 53%
    19:00 +21°C° 0 mm 4 mps 718 mmHg 56%
    20:00 +21°C° 0 mm 3 mps 718 mmHg 60%
    21:00 +20°C° 0 mm 2 mps 719 mmHg 63%
    22:00 +19°C° 0 mm 2 mps 719 mmHg 64%
    23:00 +19°C° 0 mm 2 mps 719 mmHg 65%

    9 June, Tuesday

    Time Temperature Precipitation Wind Pressure Humidity
    00:00 +19°C° 0 mm 2 mps 719 mmHg 65%
    01:00 +19°C° 0 mm 2 mps 718 mmHg 67%
    02:00 +19°C° 0 mm 1 mps 718 mmHg 68%
    03:00 +19°C° 0 mm 1 mps 718 mmHg 69%
    04:00 +19°C° 0 mm 1 mps 718 mmHg 67%
    05:00 +18°C° 0 mm 2 mps 718 mmHg 65%
    06:00 +18°C° 0 mm 2 mps 719 mmHg 63%
    07:00 +20°C° 0 mm 3 mps 719 mmHg 54%
    08:00 +21°C° 0 mm 3 mps 719 mmHg 45%
    09:00 +22°C° 0 mm 4 mps 720 mmHg 36%
    10:00 +23°C° 0 mm 4 mps 720 mmHg 36%
    11:00 +25°C° 0 mm 4 mps 720 mmHg 36%
    12:00 +26°C° 0 mm 4 mps 720 mmHg 37%
    13:00 +26°C° 0 mm 4 mps 720 mmHg 38%
    14:00 +26°C° 0 mm 5 mps 720 mmHg 39%
    15:00 +27°C° 0 mm 6 mps 719 mmHg 40%
    16:00 +26°C° 0 mm 5 mps 719 mmHg 43%
    17:00 +25°C° 0 mm 5 mps 719 mmHg 47%
    18:00 +23°C° 0 mm 4 mps 719 mmHg 51%
    19:00 +22°C° 0 mm 3 mps 720 mmHg 54%
    20:00 +21°C° 0 mm 2 mps 720 mmHg 58%
    21:00 +22°C° 0 mm 1 mps 720 mmHg 61%
    22:00 +21°C° 0 mm 1 mps 720 mmHg 64%
    23:00 +19°C° 0 mm 0 mps 720 mmHg 67%

    10 June, Wednesday

    Time Temperature Precipitation Wind Pressure Humidity
    00:00 +18°C° 0 mm 0 mps 720 mmHg 70%
    01:00 +18°C° 0 mm 0 mps 720 mmHg 72%
    02:00 +17°C° 0 mm 0 mps 719 mmHg 74%
    03:00 +17°C° 0 mm 0 mps 719 mmHg 76%
    04:00 +17°C° 0 mm 0 mps 719 mmHg 74%
    05:00 +17°C° 0 mm 0 mps 719 mmHg 73%
    06:00 +18°C° 0 mm 0 mps 719 mmHg 71%
    07:00 +21°C° 0 mm 1 mps 720 mmHg 63%
    08:00 +22°C° 0 mm 1 mps 720 mmHg 56%
    09:00 +24°C° 0 mm 1 mps 720 mmHg 48%
    10:00 +25°C° 0 mm 1 mps 720 mmHg 42%
    11:00 +27°C° 0 mm 2 mps 720 mmHg 37%
    12:00 +28°C° 0 mm 2 mps 720 mmHg 31%
    13:00 +28°C° 0 mm 3 mps 720 mmHg 31%
    14:00 +29°C° 0 mm 3 mps 719 mmHg 31%
    15:00 +30°C° 0 mm 4 mps 719 mmHg 31%
    16:00 +28°C° 0 mm 5 mps 719 mmHg 34%
    17:00 +27°C° 0 mm 5 mps 718 mmHg 36%
    18:00 +26°C° 0 mm 5 mps 718 mmHg 39%
    19:00 +25°C° 0 mm 4 mps 718 mmHg 41%
    20:00 +24°C° 0 mm 3 mps 719 mmHg 43%
    21:00 +24°C° 0 mm 2 mps 719 mmHg 44%
    22:00 +23°C° 0 mm 2 mps 719 mmHg 47%
    23:00 +23°C° 0 mm 1 mps 719 mmHg 49%

    11 June, Thursday

    Time Temperature Precipitation Wind Pressure Humidity
    00:00 +20°C° 0 mm 0 mps 719 mmHg 51%
    01:00 +20°C° 0 mm 0 mps 719 mmHg 53%
    02:00 +19°C° 0 mm 0 mps 718 mmHg 55%
    03:00 +19°C° 0 mm 0 mps 718 mmHg 57%
    04:00 +19°C° 0.1 mm 0 mps 718 mmHg 56%
    05:00 +21°C° 0.1 mm 1 mps 718 mmHg 55%
    06:00 +22°C° 0.1 mm 1 mps 718 mmHg 54%
    07:00 +23°C° 0.1 mm 1 mps 719 mmHg 51%
    08:00 +24°C° 0.1 mm 1 mps 719 mmHg 48%
    09:00 +25°C° 0.1 mm 2 mps 719 mmHg 45%
    10:00 +26°C° 0 mm 2 mps 719 mmHg 42%
    11:00 +28°C° 0 mm 2 mps 719 mmHg 38%
    12:00 +29°C° 0 mm 3 mps 719 mmHg 35%
    13:00 +29°C° 0 mm 4 mps 718 mmHg 35%
    14:00 +29°C° 0 mm 5 mps 718 mmHg 34%
    15:00 +29°C° 0 mm 6 mps 718 mmHg 34%
    16:00 +28°C° 0 mm 5 mps 718 mmHg 35%
    17:00 +27°C° 0 mm 5 mps 718 mmHg 36%
    18:00 +26°C° 0 mm 5 mps 718 mmHg 37%
    19:00 +25°C° 0 mm 4 mps 718 mmHg 42%
    20:00 +24°C° 0 mm 3 mps 719 mmHg 47%
    21:00 +22°C° 0 mm 3 mps 719 mmHg 52%
    22:00 +21°C° 0 mm 3 mps 719 mmHg 57%
    23:00 +21°C° 0 mm 2 mps 719 mmHg 61%
    Show more